Regional Weather Roundup
Issued by NWS

Home | Current Version | Previous Version | Graphics & Text | Print | Product List | Glossary On
Versions: 1 2 3 4 5 6 7 8 9 10 11 12 13 14 15 16 17 18 19 20 21 22 23 24 25 26 27 28 29 30 31 32 33 34 35 36 37 38 39 40 41 42 43 44 45 46 47 48 49 50
994
ASUS43 KLSX 222310
RWRMO

WEATHER SUMMARY FOR MISSOURI
NATIONAL WEATHER SERVICE SPRINGFIELD MO
600 PM CDT SUN APR 22 2018

NOTE: "FAIR" INDICATES FEW OR NO CLOUDS BELOW 12,000 FEET WITH NO
       SIGNIFICANT WEATHER AND/OR OBSTRUCTIONS TO VISIBILITY.
       CURRENT SKY AND/OR WEATHER CONDITIONS ARE NOT AVAILABLE FOR
       CHILLICOTHE AND FARMINGTON.

MOZ001>031-035>038-043-044-053-054-230000-
...NORTHERN AND WESTERN MISSOURI...

CITY           SKY/WX    TMP DP  RH WIND       PRES   REMARKS
KANSAS CTY INT PTSUNNY   66  41  40 NE14      30.06F
KANSAS C DTWN  CLOUDY    67  42  40 E9        30.04F
LEE`S SUMMIT   CLOUDY    62  45  53 NE13G18   30.06S
ST JOSEPH      MOSUNNY   70  42  36 NE18G24   30.08R
CHILLICOTHE      N/A     66  41  40 E7G22     30.11R
KIRKSVILLE     CLOUDY    63  40  42 E12       30.12R

$$
MOZ066>068-077>081-088>096-101>105-230000-
...SOUTHWEST MISSOURI...

CITY           SKY/WX    TMP DP  RH WIND       PRES   REMARKS
SPRINGFIELD    LGT RAIN  56  54  93 N14       29.94S
JOPLIN         CLOUDY    57  53  86 NE13G18   29.97R
BRANSON        LGT RAIN  54  52  94 N10       29.94R FOG

$$
MOZ032>034-039>042-045>050-055>058-069>072-230000-
...CENTRAL MISSOURI...

CITY           SKY/WX    TMP DP  RH WIND       PRES   REMARKS
COLUMBIA       CLOUDY    57  40  52 NE15      30.05S
JEFFERSON CITY CLOUDY    56  41  57 NE10      30.04R
ROLLA          LGT RAIN  50  47  89 NE16G28   30.01R FOG
SEDALIA        CLOUDY    59  50  72 NE13      30.05S
WHITEMAN AFB   PTSUNNY   59  48  66 NE8       30.01S
WARRENSBURG    CLOUDY    59  46  63 NE9       30.05S
OSAGE BEACH    LGT RAIN  53  51  93 N8        30.01S

$$
MOZ051-052-059>065-230000-
...EAST CENTRAL MISSOURI...

CITY           SKY/WX    TMP DP  RH WIND       PRES   REMARKS
ST LOUIS INTL  LGT RAIN  59  48  67 NE8       30.05F
SPIRIT OF STL  CLOUDY    57  46  66 E3        30.04F
ST CHARLES     CLOUDY    59  44  57 NE13      30.05F

$$
MOZ072>076-082>087-097>100-106>115-230000-
...SOUTH CENTRAL AND SOUTHEAST MISSOURI...

CITY           SKY/WX    TMP DP  RH WIND       PRES   REMARKS
CAPE GIRARDEAU LGT RAIN  59  56  89 E21G29    29.94F
FARMINGTON     LGT RAIN  51  50  96 NE15      29.99S
POPLAR BLUFF   LGT RAIN  59  58  96 E13G25    29.90R
WEST PLAINS    CLOUDY    54  52  93 NE12      29.90S

$$




USA.gov is the U.S. government's official web portal to all federal, state and local government web resources and services.